Tracking 18794 objects as of 21-September-2017
HD Live streaming from Space Station
objects crossing your sky now

OPS 9326 (IDSCS 13)

Track OPS 9326 (IDSCS 13) now!
OPS 9326 (IDSCS 13) is classified as:


NORAD ID: 2653
Int'l Code: 1967-003F
Perigee: 33,649.0 km
Apogee: 33,990.6 km
Inclination: 2.4 °
Period: 1,336.4 minutes
Semi major axis: 40190 km
RCS: 0.7944 m2 (medium)
Launch date: January 18, 1967
Source: United States (US)
Launch site: AIR FORCE EASTERN TEST RANGE (AFETR)
aabbcc
Your satellite tracking list
Your tracking list is empty





NASA's NSSDC Master Catalog

Two Line Element Set (TLE):
1 02653U 67003F   17259.36681461 -.00000123  00000-0  00000+0 0  9997
2 02653   2.4467  55.2837 0042500 353.1512 192.5814  1.07749066 98289
Source of the keplerian elements: AFSPC